User: anonymous   Login
Location: NJAA Observatory
(40.6819°N, 74.8979°W)
Time: 14:53:54
(UTC-04:00)
Language:

Iridium 84 - Orbit

View from above orbital plane
View from above orbital plane
View from above satellite
View from above satellite

Ground track
Ground track

The orbit data is extracted from the following two-line orbital elements,

1 25530U 98066D   14298.13004233  .00000093  00000-0  26042-4 0  8410
2 25530 086.3990 033.8311 0002203 111.2194 248.9237 14.34211293838539
Epoch (UTC): 25 October 2014 03:07:15
Eccentricity: 0.0002203
inclination: 86.3990°
perigee height: 776 km
apogee height: 779 km
right ascension of ascending node: 33.8311°
argument of perigee: 111.2194°
revolutions per day: 14.34211293
mean anomaly at epoch: 248.9237°
orbit number at epoch: 83853

The dashed part of the orbit path shows where the satellite is in the earth's shadow,  

DLR